STARLINK-36518, 67453

Orbit data source: Space-Track

STARLINK-36518, 67453 is a payload satellite owned by SpaceX/Seattle (US) in LEO that was launched on Wed, 14 Jan 2026 UTC via an FALCON 9 launch vehicle from the Air Force Eastern Test Range (AFETR). Payload-class satellites include a variety of spacecraft equipped with specific instruments for various scientific and technological missions. These include communications satellites like Starlink; space stations such as the ISS; scientific satellites like the Hubble; Earth observation satellites from companies like Planet Labs, Umbra, and HawkEye 360; GPS; miniature CubeSats for education and research; and military/defense satellites.

Loading next visibility...
Identifier
67453, 2026-008J
Orbit
LEO
Country
Flag of USUS
Related business
Manufacturer
SpaceX/Seattle
Mission
Operational spacecraft
Bus & Motor
STARLINK V2MO, Unknown motor
Mass
575 kg wet, ~530 kg dry
Launch date (UTC)
2026-01-14 (2 months ago)
Launch vehicle
FALCON 9
Launch site
Air Force Eastern Test Range (AFETR)
Object type
Payload
Rocket body
Debris
Shape & HBR
Unknown shape, 17.7 m
Radar Cross Section
RCS unknown

Expand to show TLE details & history
Last TLE update: 9 hours ago

TLE from 9 hours ago
0 STARLINK-36518
1 67453U 26008J   26062.82617113  .00035389  00000-0  12888-2 0  9993
2 67453  42.9980 238.4772 0002124 272.8717  87.1891 15.27593087  8677
Epoch: 2026-03-03T19:49Z
TLE epoch observation values (Epoch: 2026-03-03T19:49:41.185Z)
Latitude
-0.00006°
Longitude
139.45587°
Altitude
482.714 km
Speed
7.626 km/s
True Right ascension
15h 53m 54s
True Declination
0° 00' 00"
Sunlit
Object was in daylight at epoch
Visualization orbit readout
Latitude
Unknown
Longitude
Unknown
Altitude
Unknown
Speed
Unknown
Apparent Right ascension
Unknown
Apparent Declination
Unknown
Sunlit
N/A
Visualization observer readout
Local Sidereal Time
08:43:57
Azimuth
Unknown
Elevation
Unknown
Doppler factor
Unknown
Orbital elements
Apogee altitude
486.413 km
Perigee altitude
483.498 km
Semi-major axis
6,863.092 km
Eccentricity
0.00021
Inclination
42.998°
RAAN
238.4772°
Arg. of periapsis
272.8717°
True anomaly
87.21341°
Mean anomaly
87.1891°
Eccentric anomaly
87.20126°
Mean motion
3.81736 °/min
Orbital period
94.31 mins
BSTAR
0.0012888
Loading maneuver chart data...
Computing Atmospheric mass density...
Loading historical data...
Loading historical data...
Loading historical data...
Loading historical data...
Loading historical data...
Loading historical data...
Loading historical data...

Documentation

Showing up to 5 results
|